Wetterdaten: Samstag, 01.08.2015
Datum Zeit Auen-Temp. Temp gefhlt Luftfeuchte Luftdruck Regen Wind Richtung Richtung Taupunkt Windben
01.08.2015 00:00 12,4 C 12,6 C 75 % 1008,4 hPa 0,0 mm 2,1 km/h (1 Bft) S 180 8,1 C 6,0 km/h (2 Bft)
01.08.2015 00:05 12,2 C 12,4 C 76 % 1008,4 hPa 0,0 mm 3,6 km/h (1 Bft) S 180 8,1 C 5,4 km/h (1 Bft)
01.08.2015 00:10 12,2 C 12,4 C 76 % 1008,1 hPa 0,0 mm 3,4 km/h (1 Bft) S-SO 157 8,1 C 0,0 km/h (0 Bft)
01.08.2015 00:15 12,2 C 12,4 C 76 % 1008,1 hPa 0,0 mm 1,3 km/h (1 Bft) O-NO 67 8,1 C 0,0 km/h (0 Bft)
01.08.2015 00:20 12,2 C 12,3 C 76 % 1008,1 hPa 0,0 mm 1,0 km/h (0 Bft) S 180 8,1 C 7,0 km/h (2 Bft)
01.08.2015 00:25 12,0 C 12,2 C 76 % 1008,1 hPa 0,0 mm 1,6 km/h (1 Bft) S 180 7,9 C 0,0 km/h (0 Bft)
01.08.2015 00:30 11,4 C 12,1 C 77 % 1008,2 hPa 0,0 mm 1,8 km/h (1 Bft) S-SO 157 7,5 C 3,1 km/h (1 Bft)
01.08.2015 00:35 11,3 C 11,9 C 77 % 1008,2 hPa 0,0 mm 1,3 km/h (1 Bft) S 180 7,4 C 0,0 km/h (0 Bft)
01.08.2015 00:40 11,3 C 11,7 C 78 % 1008,2 hPa 0,0 mm 1,6 km/h (1 Bft) S-SO 157 7,6 C 0,0 km/h (0 Bft)
01.08.2015 00:45 11,2 C 11,6 C 78 % 1008,2 hPa 0,0 mm 2,1 km/h (1 Bft) S 180 7,5 C 0,0 km/h (0 Bft)
01.08.2015 00:50 11,1 C 11,6 C 79 % 1008,4 hPa 0,0 mm 0,8 km/h (0 Bft) S 180 7,6 C 3,4 km/h (1 Bft)
01.08.2015 00:55 11,0 C 11,4 C 79 % 1008,4 hPa 0,0 mm 1,3 km/h (1 Bft) S-SO 157 7,5 C 3,4 km/h (1 Bft)
01.08.2015 01:00 11,3 C 11,4 C 79 % 1008,4 hPa 0,0 mm 1,6 km/h (1 Bft) S 180 7,8 C 0,0 km/h (0 Bft)
01.08.2015 01:05 11,1 C 11,0 C 79 % 1008,4 hPa 0,0 mm 0,3 km/h (0 Bft) SO 135 7,6 C 0,0 km/h (0 Bft)
01.08.2015 01:10 10,7 C 10,6 C 79 % 1008,4 hPa 0,0 mm 0,0 km/h (0 Bft) W-SW 247 7,2 C 0,0 km/h (0 Bft)
01.08.2015 01:15 10,5 C 10,4 C 79 % 1008,4 hPa 0,0 mm 0,0 km/h (0 Bft) W-SW 247 7,0 C 0,0 km/h (0 Bft)
01.08.2015 01:20 10,5 C 10,4 C 79 % 1008,4 hPa 0,0 mm 0,0 km/h (0 Bft) S 180 7,0 C 0,0 km/h (0 Bft)
01.08.2015 01:25 10,5 C 10,3 C 79 % 1008,4 hPa 0,0 mm 0,0 km/h (0 Bft) S-SO 157 7,0 C 0,0 km/h (0 Bft)
01.08.2015 01:30 10,7 C 10,5 C 79 % 1008,6 hPa 0,0 mm 1,0 km/h (0 Bft) O-SO 112 7,2 C 7,3 km/h (2 Bft)
01.08.2015 01:35 10,8 C 10,5 C 80 % 1008,6 hPa 0,0 mm 1,3 km/h (1 Bft) W-SW 247 7,5 C 3,4 km/h (1 Bft)
01.08.2015 01:40 11,0 C 10,8 C 80 % 1008,6 hPa 0,0 mm 3,1 km/h (1 Bft) S 180 7,7 C 10,9 km/h (2 Bft)
01.08.2015 01:45 11,1 C 10,9 C 81 % 1008,6 hPa 0,0 mm 3,4 km/h (1 Bft) O-SO 112 8,0 C 0,0 km/h (0 Bft)
01.08.2015 01:50 11,4 C 11,2 C 79 % 1008,3 hPa 0,0 mm 3,1 km/h (1 Bft) S 180 7,9 C 11,7 km/h (2 Bft)
01.08.2015 01:55 11,9 C 11,7 C 81 % 1008,3 hPa 0,0 mm 5,2 km/h (1 Bft) S 180 8,7 C 2,6 km/h (1 Bft)
01.08.2015 02:00 11,9 C 11,8 C 80 % 1008,3 hPa 0,0 mm 3,9 km/h (1 Bft) SO 135 8,6 C 12,9 km/h (3 Bft)
01.08.2015 02:05 11,8 C 11,7 C 79 % 1008,3 hPa 0,0 mm 1,0 km/h (0 Bft) S-SO 157 8,3 C 0,0 km/h (0 Bft)
01.08.2015 02:10 11,8 C 11,7 C 79 % 1008,2 hPa 0,0 mm 3,4 km/h (1 Bft) SW 225 8,3 C 9,8 km/h (2 Bft)
01.08.2015 02:15 11,8 C 11,8 C 79 % 1008,2 hPa 0,0 mm 6,5 km/h (2 Bft) S-SW 202 8,3 C 9,6 km/h (2 Bft)
01.08.2015 02:20 11,5 C 11,6 C 79 % 1008,2 hPa 0,0 mm 6,7 km/h (2 Bft) SW 225 8,0 C 3,4 km/h (1 Bft)
01.08.2015 02:25 11,5 C 11,5 C 79 % 1008,2 hPa 0,0 mm 4,9 km/h (1 Bft) S-SW 202 8,0 C 6,0 km/h (2 Bft)
01.08.2015 02:30 11,8 C 11,7 C 79 % 1008,1 hPa 0,0 mm 5,7 km/h (1 Bft) SO 135 8,3 C 0,0 km/h (0 Bft)
01.08.2015 02:35 11,7 C 11,6 C 80 % 1008,1 hPa 0,0 mm 4,4 km/h (1 Bft) SO 135 8,4 C 0,0 km/h (0 Bft)
01.08.2015 02:40 11,9 C 11,8 C 80 % 1008,1 hPa 0,0 mm 0,5 km/h (0 Bft) S 180 8,6 C 0,0 km/h (0 Bft)
01.08.2015 02:45 12,1 C 11,9 C 80 % 1008,1 hPa 0,0 mm 0,3 km/h (0 Bft) SO 135 8,8 C 0,0 km/h (0 Bft)
01.08.2015 02:50 12,1 C 12,0 C 79 % 1008,0 hPa 0,0 mm 0,0 km/h (0 Bft) NO 45 8,6 C 0,0 km/h (0 Bft)
01.08.2015 02:55 12,1 C 12,0 C 79 % 1008,0 hPa 0,0 mm 0,0 km/h (0 Bft) O-NO 67 8,6 C 0,0 km/h (0 Bft)
01.08.2015 03:00 12,2 C 12,2 C 78 % 1008,0 hPa 0,0 mm 0,0 km/h (0 Bft) O-SO 112 8,5 C 0,0 km/h (0 Bft)
01.08.2015 03:05 12,2 C 12,1 C 79 % 1008,0 hPa 0,0 mm 0,0 km/h (0 Bft) NO 45 8,7 C 0,0 km/h (0 Bft)
01.08.2015 03:10 12,2 C 12,1 C 79 % 1008,2 hPa 0,0 mm 0,0 km/h (0 Bft) S 180 8,7 C 0,0 km/h (0 Bft)
01.08.2015 03:15 12,2 C 12,1 C 79 % 1008,2 hPa 0,0 mm 0,0 km/h (0 Bft) W 270 8,7 C 0,0 km/h (0 Bft)
01.08.2015 03:19 12,2 C 12,1 C 79 % 1008,2 hPa 0,0 mm 0,0 km/h (0 Bft) O-NO 67 8,7 C 0,0 km/h (0 Bft)
01.08.2015 03:25 12,2 C 12,2 C 78 % 1008,2 hPa 0,0 mm 0,0 km/h (0 Bft) NO 45 8,5 C 0,0 km/h (0 Bft)
01.08.2015 03:30 12,2 C 12,1 C 79 % 1008,1 hPa 0,0 mm 0,0 km/h (0 Bft) NO 45 8,7 C 0,0 km/h (0 Bft)
01.08.2015 03:35 12,2 C 12,2 C 78 % 1008,1 hPa 0,0 mm 0,0 km/h (0 Bft) O-NO 67 8,5 C 0,0 km/h (0 Bft)
01.08.2015 03:40 12,2 C 12,1 C 79 % 1008,1 hPa 0,0 mm 0,0 km/h (0 Bft) N 360 8,7 C 0,0 km/h (0 Bft)
01.08.2015 03:45 12,1 C 12,0 C 79 % 1008,1 hPa 0,0 mm 0,0 km/h (0 Bft) NO 45 8,6 C 0,0 km/h (0 Bft)
01.08.2015 03:50 12,2 C 12,1 C 79 % 1007,9 hPa 0,0 mm 0,0 km/h (0 Bft) O-NO 67 8,7 C 0,0 km/h (0 Bft)
01.08.2015 03:55 12,1 C 12,0 C 79 % 1007,9 hPa 0,0 mm 0,0 km/h (0 Bft) NO 45 8,6 C 0,0 km/h (0 Bft)
01.08.2015 04:00 12,1 C 12,0 C 79 % 1007,9 hPa 0,0 mm 0,0 km/h (0 Bft) O-NO 67 8,6 C 0,0 km/h (0 Bft)
01.08.2015 04:05 12,2 C 12,1 C 80 % 1007,9 hPa 0,0 mm 0,0 km/h (0 Bft) NW 315 8,9 C 0,0 km/h (0 Bft)
01.08.2015 04:10 12,1 C 12,0 C 80 % 1007,8 hPa 0,0 mm 0,0 km/h (0 Bft) NW 315 8,8 C 0,0 km/h (0 Bft)
01.08.2015 04:15 12,2 C 12,1 C 80 % 1007,8 hPa 0,0 mm 0,0 km/h (0 Bft) NW 315 8,9 C 0,0 km/h (0 Bft)
01.08.2015 04:20 12,1 C 12,0 C 81 % 1007,8 hPa 0,0 mm 0,0 km/h (0 Bft) W-NW 292 8,9 C 0,0 km/h (0 Bft)
01.08.2015 04:25 12,2 C 12,1 C 81 % 1007,8 hPa 0,0 mm 0,0 km/h (0 Bft) W 270 9,0 C 0,0 km/h (0 Bft)
01.08.2015 04:30 12,1 C 12,0 C 81 % 1007,9 hPa 0,0 mm 0,5 km/h (0 Bft) NW 315 8,9 C 0,0 km/h (0 Bft)
01.08.2015 04:35 12,1 C 12,1 C 80 % 1007,9 hPa 0,0 mm 0,5 km/h (0 Bft) O 90 8,8 C 0,0 km/h (0 Bft)
01.08.2015 04:40 12,2 C 12,2 C 80 % 1007,9 hPa 0,0 mm 0,0 km/h (0 Bft) S-SO 157 8,9 C 0,0 km/h (0 Bft)
01.08.2015 04:45 12,2 C 12,1 C 81 % 1007,9 hPa 0,0 mm 0,0 km/h (0 Bft) NW 315 9,0 C 0,0 km/h (0 Bft)
01.08.2015 04:50 12,1 C 12,0 C 81 % 1007,8 hPa 0,0 mm 0,0 km/h (0 Bft) W-SW 247 8,9 C 0,0 km/h (0 Bft)
01.08.2015 04:55 12,1 C 12,0 C 81 % 1007,8 hPa 0,0 mm 0,0 km/h (0 Bft) N 360 8,9 C 0,0 km/h (0 Bft)
01.08.2015 05:00 12,0 C 11,9 C 81 % 1007,8 hPa 0,0 mm 0,0 km/h (0 Bft) SW 225 8,8 C 0,0 km/h (0 Bft)
01.08.2015 05:05 12,1 C 12,1 C 80 % 1007,8 hPa 0,0 mm 0,0 km/h (0 Bft) S-SW 202 8,8 C 0,0 km/h (0 Bft)
01.08.2015 05:10 12,1 C 12,0 C 82 % 1007,5 hPa 0,0 mm 0,3 km/h (0 Bft) W 270 9,1 C 2,8 km/h (1 Bft)
01.08.2015 05:15 12,1 C 12,0 C 82 % 1007,5 hPa 0,0 mm 0,3 km/h (0 Bft) W-SW 247 9,1 C 0,0 km/h (0 Bft)
01.08.2015 05:20 12,1 C 12,0 C 82 % 1007,5 hPa 0,0 mm 0,3 km/h (0 Bft) NW 315 9,1 C 0,0 km/h (0 Bft)
01.08.2015 05:25 12,0 C 11,9 C 82 % 1007,5 hPa 0,0 mm 0,0 km/h (0 Bft) NW 315 9,0 C 0,0 km/h (0 Bft)
01.08.2015 05:30 12,0 C 11,9 C 82 % 1007,4 hPa 0,0 mm 0,0 km/h (0 Bft) W-NW 292 9,0 C 0,0 km/h (0 Bft)
01.08.2015 05:35 12,0 C 11,9 C 82 % 1007,4 hPa 0,0 mm 0,0 km/h (0 Bft) O-NO 67 9,0 C 0,0 km/h (0 Bft)
01.08.2015 05:40 11,9 C 11,8 C 83 % 1007,4 hPa 0,0 mm 0,0 km/h (0 Bft) NO 45 9,1 C 0,0 km/h (0 Bft)
01.08.2015 05:45 11,7 C 11,6 C 83 % 1007,4 hPa 0,0 mm 0,0 km/h (0 Bft) NW 315 8,9 C 0,0 km/h (0 Bft)
01.08.2015 05:50 11,5 C 11,4 C 83 % 1007,4 hPa 0,0 mm 0,0 km/h (0 Bft) S-SW 202 8,7 C 0,0 km/h (0 Bft)
01.08.2015 05:55 11,6 C 11,4 C 83 % 1007,4 hPa 0,0 mm 0,0 km/h (0 Bft) S-SW 202 8,8 C 0,0 km/h (0 Bft)
01.08.2015 06:00 11,3 C 11,2 C 83 % 1007,4 hPa 0,0 mm 0,0 km/h (0 Bft) O-NO 67 8,5 C 0,0 km/h (0 Bft)
01.08.2015 06:05 11,3 C 11,2 C 83 % 1007,4 hPa 0,0 mm 0,0 km/h (0 Bft) NO 45 8,5 C 0,0 km/h (0 Bft)
01.08.2015 06:10 11,3 C 11,1 C 83 % 1007,2 hPa 0,0 mm 0,0 km/h (0 Bft) S-SO 157 8,5 C 0,0 km/h (0 Bft)
01.08.2015 06:15 11,5 C 11,3 C 84 % 1007,2 hPa 0,0 mm 0,0 km/h (0 Bft) O-SO 112 8,9 C 0,0 km/h (0 Bft)
01.08.2015 06:20 11,6 C 11,4 C 84 % 1007,2 hPa 0,0 mm 0,0 km/h (0 Bft) W 270 9,0 C 0,0 km/h (0 Bft)
01.08.2015 06:25 11,7 C 11,7 C 82 % 1007,2 hPa 0,0 mm 0,0 km/h (0 Bft) S 180 8,7 C 4,4 km/h (1 Bft)
01.08.2015 06:30 11,8 C 13,0 C 82 % 1007,1 hPa 0,0 mm 0,5 km/h (0 Bft) O-SO 112 8,8 C 0,0 km/h (0 Bft)
01.08.2015 06:35 11,9 C 13,1 C 82 % 1007,1 hPa 0,0 mm 0,5 km/h (0 Bft) O-SO 112 8,9 C 0,0 km/h (0 Bft)
01.08.2015 06:40 12,0 C 13,0 C 82 % 1007,1 hPa 0,0 mm 0,8 km/h (0 Bft) N-NO 22 9,0 C 0,0 km/h (0 Bft)
01.08.2015 06:45 12,1 C 13,3 C 82 % 1007,1 hPa 0,0 mm 0,8 km/h (0 Bft) N-NO 22 9,1 C 0,0 km/h (0 Bft)
01.08.2015 06:50 12,3 C 15,7 C 82 % 1006,9 hPa 0,0 mm 0,0 km/h (0 Bft) N-NO 22 9,3 C 0,0 km/h (0 Bft)
01.08.2015 06:55 12,7 C 16,7 C 82 % 1006,9 hPa 0,0 mm 0,0 km/h (0 Bft) O-SO 112 9,7 C 0,0 km/h (0 Bft)
01.08.2015 07:01 13,4 C 17,9 C 80 % 1006,9 hPa 0,0 mm 0,0 km/h (0 Bft) NW 315 10,0 C 0,0 km/h (0 Bft)
01.08.2015 07:05 13,4 C 17,9 C 80 % 1006,9 hPa 0,0 mm 0,0 km/h (0 Bft) NW 315 10,0 C 0,0 km/h (0 Bft)
01.08.2015 07:10 14,0 C 18,6 C 81 % 1007,3 hPa 0,0 mm 0,0 km/h (0 Bft) NO 45 10,8 C 0,0 km/h (0 Bft)
01.08.2015 07:15 14,2 C 19,5 C 80 % 1007,3 hPa 0,0 mm 0,0 km/h (0 Bft) O-NO 67 10,8 C 0,0 km/h (0 Bft)
01.08.2015 07:20 14,6 C 20,1 C 80 % 1007,3 hPa 0,0 mm 0,0 km/h (0 Bft) O-NO 67 11,2 C 0,0 km/h (0 Bft)
01.08.2015 07:25 15,3 C 21,1 C 77 % 1007,3 hPa 0,0 mm 0,0 km/h (0 Bft) NO 45 11,3 C 0,0 km/h (0 Bft)
01.08.2015 07:30 16,4 C 22,4 C 79 % 1007,6 hPa 0,0 mm 0,0 km/h (0 Bft) N-NW 337 12,7 C 0,0 km/h (0 Bft)
01.08.2015 07:35 16,2 C 23,8 C 77 % 1007,6 hPa 0,0 mm 0,0 km/h (0 Bft) N-NW 337 12,2 C 0,0 km/h (0 Bft)
01.08.2015 07:40 16,3 C 24,6 C 74 % 1007,6 hPa 0,0 mm 0,0 km/h (0 Bft) N-NW 337 11,7 C 0,0 km/h (0 Bft)
01.08.2015 07:45 16,9 C 25,3 C 75 % 1007,6 hPa 0,0 mm 0,0 km/h (0 Bft) N-NW 337 12,4 C 0,0 km/h (0 Bft)
01.08.2015 07:50 17,9 C 25,7 C 73 % 1007,7 hPa 0,0 mm 1,0 km/h (0 Bft) S 180 13,0 C 6,7 km/h (2 Bft)
01.08.2015 07:55 18,0 C 25,5 C 71 % 1007,7 hPa 0,0 mm 3,4 km/h (1 Bft) SW 225 12,7 C 10,4 km/h (2 Bft)
01.08.2015 08:00 18,0 C 24,4 C 70 % 1007,7 hPa 0,0 mm 4,7 km/h (1 Bft) S 180 12,4 C 3,6 km/h (1 Bft)
01.08.2015 08:05 18,2 C 24,3 C 70 % 1007,7 hPa 0,0 mm 4,4 km/h (1 Bft) S 180 12,6 C 6,5 km/h (2 Bft)
01.08.2015 08:10 19,1 C 25,0 C 70 % 1007,2 hPa 0,0 mm 2,8 km/h (1 Bft) W 270 13,5 C 3,6 km/h (1 Bft)
01.08.2015 08:15 19,5 C 25,5 C 69 % 1007,2 hPa 0,0 mm 3,4 km/h (1 Bft) NW 315 13,7 C 4,9 km/h (1 Bft)
01.08.2015 08:20 19,2 C 23,5 C 68 % 1007,2 hPa 0,0 mm 4,1 km/h (1 Bft) W-NW 292 13,1 C 4,9 km/h (1 Bft)
01.08.2015 08:25 19,0 C 22,5 C 69 % 1007,2 hPa 0,0 mm 3,1 km/h (1 Bft) W 270 13,2 C 0,0 km/h (0 Bft)
01.08.2015 08:30 19,1 C 22,2 C 69 % 1008,2 hPa 0,0 mm 0,8 km/h (0 Bft) W 270 13,3 C 2,8 km/h (1 Bft)
01.08.2015 08:35 19,2 C 22,1 C 69 % 1008,2 hPa 0,0 mm 1,3 km/h (1 Bft) NW 315 13,4 C 2,6 km/h (1 Bft)
01.08.2015 08:40 19,3 C 22,5 C 69 % 1008,2 hPa 0,0 mm 2,8 km/h (1 Bft) W-NW 292 13,5 C 4,4 km/h (1 Bft)
01.08.2015 08:45 19,4 C 22,5 C 69 % 1008,2 hPa 0,0 mm 2,3 km/h (1 Bft) W-NW 292 13,6 C 0,0 km/h (0 Bft)
01.08.2015 08:50 19,4 C 21,9 C 69 % 1008,5 hPa 0,0 mm 2,1 km/h (1 Bft) NW 315 13,6 C 3,1 km/h (1 Bft)
01.08.2015 08:55 19,3 C 21,7 C 68 % 1008,5 hPa 0,0 mm 1,8 km/h (1 Bft) W-NW 292 13,2 C 4,9 km/h (1 Bft)
01.08.2015 09:00 19,3 C 21,5 C 68 % 1008,5 hPa 0,0 mm 1,6 km/h (1 Bft) SW 225 13,2 C 3,1 km/h (1 Bft)
01.08.2015 09:05 19,1 C 21,3 C 67 % 1008,5 hPa 0,0 mm 1,8 km/h (1 Bft) S 180 12,8 C 0,0 km/h (0 Bft)
01.08.2015 09:10 18,8 C 20,7 C 67 % 1009,0 hPa 0,0 mm 1,6 km/h (1 Bft) S-SW 202 12,5 C 4,1 km/h (1 Bft)
01.08.2015 09:15 18,7 C 20,2 C 67 % 1009,0 hPa 0,0 mm 0,8 km/h (0 Bft) SO 135 12,4 C 0,0 km/h (0 Bft)
01.08.2015 09:20 18,2 C 19,4 C 66 % 1009,0 hPa 0,0 mm 3,6 km/h (1 Bft) W 270 11,7 C 18,6 km/h (3 Bft)
01.08.2015 09:21 18,2 C 19,4 C 66 % 1009,0 hPa 0,0 mm 3,6 km/h (1 Bft) W 270 11,7 C 18,6 km/h (3 Bft)
01.08.2015 09:25 18,2 C 19,4 C 66 % 1009,0 hPa 0,0 mm 3,6 km/h (1 Bft) W 270 11,7 C 18,6 km/h (3 Bft)
01.08.2015 09:30 18,1 C 19,1 C 65 % 1010,8 hPa 0,0 mm 7,5 km/h (2 Bft) NW 315 11,4 C 14,5 km/h (3 Bft)
01.08.2015 09:35 18,0 C 18,8 C 65 % 1010,8 hPa 0,0 mm 8,5 km/h (2 Bft) SW 225 11,3 C 8,3 km/h (2 Bft)
01.08.2015 09:40 17,8 C 18,5 C 66 % 1010,8 hPa 0,0 mm 8,0 km/h (2 Bft) W-NW 292 11,4 C 21,8 km/h (4 Bft)
01.08.2015 09:45 17,7 C 18,4 C 66 % 1010,8 hPa 0,0 mm 6,7 km/h (2 Bft) S 180 11,3 C 15,8 km/h (3 Bft)
01.08.2015 09:50 17,6 C 18,3 C 67 % 1010,2 hPa 0,0 mm 7,3 km/h (2 Bft) SW 225 11,4 C 8,8 km/h (2 Bft)
01.08.2015 09:55 17,6 C 18,4 C 67 % 1010,2 hPa 0,0 mm 8,8 km/h (2 Bft) W-NW 292 11,4 C 19,7 km/h (3 Bft)
01.08.2015 10:00 17,6 C 18,4 C 67 % 1010,2 hPa 0,0 mm 8,0 km/h (2 Bft) SW 225 11,4 C 3,9 km/h (1 Bft)
01.08.2015 10:05 17,7 C 18,6 C 67 % 1010,2 hPa 0,0 mm 7,8 km/h (2 Bft) W 270 11,5 C 12,9 km/h (3 Bft)
01.08.2015 10:10 17,9 C 19,0 C 67 % 1010,5 hPa 0,0 mm 7,3 km/h (2 Bft) W 270 11,7 C 28,2 km/h (4 Bft)
01.08.2015 10:15 18,0 C 19,4 C 66 % 1010,5 hPa 0,0 mm 8,5 km/h (2 Bft) S 180 11,6 C 7,0 km/h (2 Bft)
01.08.2015 10:20 18,3 C 20,4 C 65 % 1010,5 hPa 0,0 mm 10,4 km/h (2 Bft) NW 315 11,6 C 30,8 km/h (5 Bft)
01.08.2015 10:25 18,7 C 21,5 C 64 % 1010,5 hPa 0,0 mm 10,6 km/h (2 Bft) NW 315 11,7 C 14,0 km/h (3 Bft)
01.08.2015 10:30 18,9 C 22,4 C 63 % 1010,5 hPa 0,0 mm 10,9 km/h (2 Bft) W 270 11,7 C 21,2 km/h (4 Bft)
01.08.2015 10:35 18,5 C 21,7 C 62 % 1010,5 hPa 0,0 mm 12,9 km/h (3 Bft) W-SW 247 11,1 C 14,0 km/h (3 Bft)
01.08.2015 10:40 18,2 C 20,8 C 63 % 1010,5 hPa 0,0 mm 12,9 km/h (3 Bft) W-NW 292 11,0 C 32,9 km/h (5 Bft)
01.08.2015 10:45 18,0 C 20,3 C 63 % 1010,5 hPa 0,0 mm 10,6 km/h (2 Bft) W 270 10,8 C 11,7 km/h (2 Bft)
01.08.2015 10:50 17,8 C 19,6 C 64 % 1010,5 hPa 0,0 mm 8,8 km/h (2 Bft) W 270 10,9 C 14,2 km/h (3 Bft)
01.08.2015 10:55 17,7 C 19,4 C 64 % 1010,5 hPa 0,0 mm 8,5 km/h (2 Bft) SW 225 10,8 C 13,7 km/h (3 Bft)
01.08.2015 11:00 17,4 C 19,0 C 64 % 1010,5 hPa 0,0 mm 9,6 km/h (2 Bft) NW 315 10,5 C 26,9 km/h (4 Bft)
01.08.2015 11:05 17,2 C 18,6 C 65 % 1010,5 hPa 0,0 mm 9,6 km/h (2 Bft) S-SO 157 10,6 C 4,7 km/h (1 Bft)
01.08.2015 11:10 17,2 C 18,5 C 65 % 1010,6 hPa 0,0 mm 10,6 km/h (2 Bft) W 270 10,6 C 17,9 km/h (3 Bft)
01.08.2015 11:15 17,2 C 18,3 C 66 % 1010,6 hPa 0,0 mm 9,1 km/h (2 Bft) W-NW 292 10,8 C 19,9 km/h (4 Bft)
01.08.2015 11:20 17,1 C 18,3 C 66 % 1010,6 hPa 0,0 mm 8,0 km/h (2 Bft) N-NO 22 10,7 C 19,4 km/h (3 Bft)
01.08.2015 11:25 17,0 C 18,2 C 66 % 1010,6 hPa 0,0 mm 7,3 km/h (2 Bft) W 270 10,6 C 10,4 km/h (2 Bft)
01.08.2015 11:30 16,8 C 18,0 C 67 % 1010,9 hPa 0,0 mm 8,8 km/h (2 Bft) W 270 10,6 C 11,1 km/h (2 Bft)
01.08.2015 11:35 16,8 C 17,9 C 67 % 1010,9 hPa 0,0 mm 8,3 km/h (2 Bft) NW 315 10,6 C 8,8 km/h (2 Bft)
01.08.2015 11:40 16,5 C 17,6 C 67 % 1010,9 hPa 0,0 mm 10,1 km/h (2 Bft) NW 315 10,4 C 9,1 km/h (2 Bft)
01.08.2015 11:45 16,3 C 17,3 C 66 % 1010,9 hPa 0,0 mm 12,7 km/h (3 Bft) W 270 9,9 C 19,4 km/h (3 Bft)
01.08.2015 11:50 16,1 C 16,8 C 67 % 1011,1 hPa 0,0 mm 12,2 km/h (2 Bft) W-SW 247 10,0 C 10,4 km/h (2 Bft)
01.08.2015 11:55 15,8 C 16,4 C 68 % 1011,1 hPa 0,0 mm 12,4 km/h (3 Bft) NW 315 9,9 C 8,0 km/h (2 Bft)
01.08.2015 12:00 15,6 C 16,1 C 69 % 1011,1 hPa 0,0 mm 10,4 km/h (2 Bft) W 270 9,9 C 9,8 km/h (2 Bft)
01.08.2015 12:05 15,7 C 16,2 C 69 % 1011,1 hPa 0,0 mm 7,0 km/h (2 Bft) W-SW 247 10,0 C 9,8 km/h (2 Bft)
01.08.2015 12:10 15,7 C 16,2 C 70 % 1011,2 hPa 0,0 mm 5,2 km/h (1 Bft) W 270 10,2 C 5,2 km/h (1 Bft)
01.08.2015 12:15 15,7 C 16,2 C 70 % 1011,2 hPa 0,0 mm 4,9 km/h (1 Bft) W 270 10,2 C 15,8 km/h (3 Bft)
01.08.2015 12:20 15,6 C 16,1 C 71 % 1011,2 hPa 0,0 mm 4,9 km/h (1 Bft) NW 315 10,4 C 5,7 km/h (1 Bft)
01.08.2015 12:25 15,6 C 16,1 C 71 % 1011,2 hPa 0,0 mm 5,2 km/h (1 Bft) W 270 10,4 C 8,0 km/h (2 Bft)
01.08.2015 12:30 15,5 C 16,1 C 72 % 1011,2 hPa 0,0 mm 5,4 km/h (1 Bft) W-NW 292 10,5 C 4,7 km/h (1 Bft)
01.08.2015 12:35 15,5 C 16,1 C 72 % 1011,2 hPa 0,0 mm 5,4 km/h (1 Bft) W-NW 292 10,5 C 3,9 km/h (1 Bft)
01.08.2015 12:40 15,5 C 15,9 C 73 % 1011,2 hPa 0,0 mm 4,9 km/h (1 Bft) W 270 10,7 C 4,7 km/h (1 Bft)
01.08.2015 12:45 15,5 C 15,9 C 73 % 1011,2 hPa 0,0 mm 4,4 km/h (1 Bft) N-NW 337 10,7 C 0,0 km/h (0 Bft)
01.08.2015 12:50 15,6 C 16,1 C 73 % 1011,3 hPa 0,0 mm 2,6 km/h (1 Bft) S-SO 157 10,8 C 2,6 km/h (1 Bft)
01.08.2015 12:55 15,8 C 16,4 C 74 % 1011,3 hPa 0,0 mm 1,8 km/h (1 Bft) SO 135 11,2 C 6,7 km/h (2 Bft)
01.08.2015 13:00 15,8 C 16,8 C 74 % 1011,3 hPa 0,0 mm 2,8 km/h (1 Bft) W-NW 292 11,2 C 9,8 km/h (2 Bft)
01.08.2015 13:05 15,8 C 16,9 C 74 % 1011,3 hPa 0,0 mm 4,1 km/h (1 Bft) W 270 11,2 C 3,9 km/h (1 Bft)
01.08.2015 13:10 15,9 C 17,2 C 74 % 1011,2 hPa 0,0 mm 6,5 km/h (2 Bft) W-NW 292 11,3 C 7,0 km/h (2 Bft)
01.08.2015 13:15 16,1 C 17,8 C 73 % 1011,2 hPa 0,0 mm 6,2 km/h (2 Bft) W-SW 247 11,3 C 3,9 km/h (1 Bft)
01.08.2015 13:20 16,4 C 18,7 C 73 % 1011,2 hPa 0,0 mm 5,7 km/h (1 Bft) NW 315 11,5 C 8,0 km/h (2 Bft)
01.08.2015 13:25 16,6 C 18,9 C 73 % 1011,2 hPa 0,0 mm 5,4 km/h (1 Bft) W-NW 292 11,7 C 5,7 km/h (1 Bft)
01.08.2015 13:30 16,7 C 19,3 C 73 % 1010,9 hPa 0,0 mm 5,4 km/h (1 Bft) NW 315 11,8 C 4,1 km/h (1 Bft)
01.08.2015 13:35 16,8 C 19,2 C 72 % 1010,9 hPa 0,0 mm 5,7 km/h (1 Bft) W-NW 292 11,7 C 5,7 km/h (1 Bft)
01.08.2015 13:40 16,8 C 19,0 C 72 % 1010,9 hPa 0,0 mm 6,0 km/h (2 Bft) NW 315 11,7 C 9,3 km/h (2 Bft)
01.08.2015 13:45 16,8 C 19,0 C 72 % 1010,9 hPa 0,0 mm 5,4 km/h (1 Bft) W 270 11,7 C 6,5 km/h (2 Bft)
01.08.2015 13:50 16,9 C 18,8 C 72 % 1011,1 hPa 0,0 mm 6,0 km/h (2 Bft) NW 315 11,8 C 9,1 km/h (2 Bft)
01.08.2015 13:55 16,8 C 18,6 C 72 % 1011,1 hPa 0,0 mm 6,0 km/h (2 Bft) W 270 11,7 C 6,5 km/h (2 Bft)
01.08.2015 14:00 16,8 C 18,8 C 71 % 1011,1 hPa 0,0 mm 4,4 km/h (1 Bft) W 270 11,5 C 0,0 km/h (0 Bft)
01.08.2015 14:05 16,8 C 18,8 C 71 % 1011,1 hPa 0,0 mm 3,9 km/h (1 Bft) W 270 11,5 C 4,9 km/h (1 Bft)
01.08.2015 14:10 16,8 C 18,7 C 71 % 1010,8 hPa 0,0 mm 2,8 km/h (1 Bft) W 270 11,5 C 5,2 km/h (1 Bft)
01.08.2015 14:15 16,7 C 18,6 C 71 % 1010,8 hPa 0,0 mm 3,1 km/h (1 Bft) NW 315 11,4 C 0,0 km/h (0 Bft)
01.08.2015 14:20 16,9 C 18,7 C 71 % 1010,8 hPa 0,0 mm 4,7 km/h (1 Bft) NW 315 11,6 C 8,5 km/h (2 Bft)
01.08.2015 14:25 16,9 C 18,8 C 71 % 1010,8 hPa 0,0 mm 4,4 km/h (1 Bft) NW 315 11,6 C 7,8 km/h (2 Bft)
01.08.2015 14:30 16,9 C 19,0 C 71 % 1010,8 hPa 0,0 mm 3,9 km/h (1 Bft) N-NW 337 11,6 C 3,4 km/h (1 Bft)
01.08.2015 14:35 17,1 C 19,6 C 70 % 1010,8 hPa 0,0 mm 2,6 km/h (1 Bft) S-SO 157 11,6 C 0,0 km/h (0 Bft)
01.08.2015 14:40 17,2 C 20,2 C 70 % 1010,8 hPa 0,0 mm 0,5 km/h (0 Bft) NW 315 11,7 C 4,7 km/h (1 Bft)
01.08.2015 14:45 17,3 C 20,2 C 70 % 1010,8 hPa 0,0 mm 2,3 km/h (1 Bft) NW 315 11,8 C 7,0 km/h (2 Bft)
01.08.2015 14:50 17,2 C 19,7 C 70 % 1010,8 hPa 0,0 mm 4,1 km/h (1 Bft) NW 315 11,7 C 0,0 km/h (0 Bft)
01.08.2015 14:55 17,1 C 19,4 C 70 % 1010,8 hPa 0,0 mm 2,6 km/h (1 Bft) NW 315 11,6 C 0,0 km/h (0 Bft)
01.08.2015 15:00 17,1 C 19,1 C 70 % 1010,8 hPa 0,0 mm 0,8 km/h (0 Bft) NW 315 11,6 C 0,0 km/h (0 Bft)
01.08.2015 15:05 17,1 C 19,0 C 70 % 1010,8 hPa 0,0 mm 0,8 km/h (0 Bft) N-NO 22 11,6 C 0,0 km/h (0 Bft)
01.08.2015 15:10 17,1 C 19,0 C 70 % 1010,6 hPa 0,0 mm 0,8 km/h (0 Bft) W 270 11,6 C 0,0 km/h (0 Bft)
01.08.2015 15:15 17,2 C 19,1 C 71 % 1010,6 hPa 0,0 mm 1,3 km/h (1 Bft) NW 315 11,9 C 6,2 km/h (2 Bft)
01.08.2015 15:20 17,2 C 19,1 C 70 % 1010,6 hPa 0,0 mm 2,1 km/h (1 Bft) O-NO 67 11,7 C 0,0 km/h (0 Bft)
01.08.2015 15:22 17,2 C 19,2 C 70 % 1010,6 hPa 0,0 mm 3,1 km/h (1 Bft) NW 315 11,7 C 4,1 km/h (1 Bft)
01.08.2015 15:25 17,2 C 19,2 C 70 % 1010,6 hPa 0,0 mm 3,1 km/h (1 Bft) NW 315 11,7 C 4,1 km/h (1 Bft)
01.08.2015 15:30 17,4 C 19,8 C 70 % 1010,6 hPa 0,0 mm 2,3 km/h (1 Bft) O-NO 67 11,9 C 3,9 km/h (1 Bft)
01.08.2015 15:35 17,3 C 20,0 C 70 % 1010,6 hPa 0,0 mm 1,8 km/h (1 Bft) SO 135 11,8 C 0,0 km/h (0 Bft)
01.08.2015 15:40 17,3 C 20,3 C 70 % 1010,6 hPa 0,0 mm 0,5 km/h (0 Bft) NO 45 11,8 C 4,7 km/h (1 Bft)
01.08.2015 15:45 17,5 C 20,4 C 70 % 1010,6 hPa 0,0 mm 1,3 km/h (1 Bft) NW 315 12,0 C 0,0 km/h (0 Bft)
01.08.2015 15:50 17,5 C 20,4 C 70 % 1010,6 hPa 0,0 mm 1,6 km/h (1 Bft) NO 45 12,0 C 0,0 km/h (0 Bft)
01.08.2015 15:55 17,5 C 20,4 C 70 % 1010,6 hPa 0,0 mm 1,3 km/h (1 Bft) NO 45 12,0 C 3,9 km/h (1 Bft)
01.08.2015 16:00 17,2 C 19,8 C 70 % 1010,6 hPa 0,0 mm 2,3 km/h (1 Bft) S 180 11,7 C 4,7 km/h (1 Bft)
01.08.2015 16:05 17,2 C 19,6 C 70 % 1010,6 hPa 0,0 mm 1,8 km/h (1 Bft) NO 45 11,7 C 6,7 km/h (2 Bft)
01.08.2015 16:10 17,2 C 19,4 C 70 % 1010,7 hPa 0,0 mm 1,3 km/h (1 Bft) NO 45 11,7 C 2,8 km/h (1 Bft)
01.08.2015 16:15 17,3 C 19,4 C 70 % 1010,7 hPa 0,0 mm 1,0 km/h (0 Bft) O-SO 112 11,8 C 0,0 km/h (0 Bft)
01.08.2015 16:20 17,3 C 19,4 C 70 % 1010,7 hPa 0,0 mm 0,5 km/h (0 Bft) N-NO 22 11,8 C 3,1 km/h (1 Bft)
01.08.2015 16:25 17,5 C 19,4 C 70 % 1010,7 hPa 0,0 mm 0,5 km/h (0 Bft) W 270 12,0 C 0,0 km/h (0 Bft)
01.08.2015 16:30 17,4 C 19,4 C 71 % 1010,8 hPa 0,0 mm 0,8 km/h (0 Bft) O-NO 67 12,1 C 3,4 km/h (1 Bft)
01.08.2015 16:35 17,4 C 19,1 C 71 % 1010,8 hPa 0,0 mm 0,8 km/h (0 Bft) NO 45 12,1 C 0,0 km/h (0 Bft)
01.08.2015 16:40 17,3 C 18,9 C 71 % 1010,8 hPa 0,0 mm 0,8 km/h (0 Bft) NO 45 12,0 C 0,0 km/h (0 Bft)
01.08.2015 16:45 17,3 C 18,8 C 71 % 1010,8 hPa 0,0 mm 0,8 km/h (0 Bft) O-NO 67 12,0 C 5,2 km/h (1 Bft)
01.08.2015 16:50 17,5 C 19,2 C 71 % 1010,8 hPa 0,0 mm 0,8 km/h (0 Bft) N 360 12,2 C 3,1 km/h (1 Bft)
01.08.2015 16:55 17,7 C 19,5 C 70 % 1010,8 hPa 0,0 mm 1,8 km/h (1 Bft) NO 45 12,2 C 6,2 km/h (2 Bft)
01.08.2015 17:00 17,8 C 19,9 C 71 % 1010,8 hPa 0,0 mm 1,8 km/h (1 Bft) N-NO 22 12,5 C 0,0 km/h (0 Bft)
01.08.2015 17:05 17,7 C 19,9 C 70 % 1010,8 hPa 0,0 mm 2,6 km/h (1 Bft) O-NO 67 12,2 C 4,9 km/h (1 Bft)
01.08.2015 17:10 17,6 C 19,6 C 70 % 1010,6 hPa 0,0 mm 2,6 km/h (1 Bft) NO 45 12,1 C 5,2 km/h (1 Bft)
01.08.2015 17:15 17,6 C 19,4 C 70 % 1010,6 hPa 0,0 mm 2,3 km/h (1 Bft) NO 45 12,1 C 0,0 km/h (0 Bft)
01.08.2015 17:20 17,7 C 19,4 C 70 % 1010,6 hPa 0,0 mm 2,1 km/h (1 Bft) N 360 12,2 C 4,9 km/h (1 Bft)
01.08.2015 17:25 17,8 C 19,6 C 70 % 1010,6 hPa 0,0 mm 2,6 km/h (1 Bft) NO 45 12,3 C 6,2 km/h (2 Bft)
01.08.2015 17:30 17,9 C 19,8 C 70 % 1010,6 hPa 0,0 mm 3,6 km/h (1 Bft) N-NO 22 12,3 C 3,6 km/h (1 Bft)
01.08.2015 17:35 17,9 C 20,0 C 70 % 1010,6 hPa 0,0 mm 3,6 km/h (1 Bft) NO 45 12,3 C 6,5 km/h (2 Bft)
01.08.2015 17:40 18,0 C 20,1 C 70 % 1010,6 hPa 0,0 mm 3,9 km/h (1 Bft) NW 315 12,4 C 3,1 km/h (1 Bft)
01.08.2015 17:45 18,1 C 20,2 C 70 % 1010,6 hPa 0,0 mm 3,1 km/h (1 Bft) N-NW 337 12,5 C 3,6 km/h (1 Bft)
01.08.2015 17:50 18,2 C 20,2 C 70 % 1010,6 hPa 0,0 mm 2,1 km/h (1 Bft) N 360 12,6 C 7,8 km/h (2 Bft)
01.08.2015 17:55 18,1 C 19,9 C 70 % 1010,6 hPa 0,0 mm 2,6 km/h (1 Bft) O-NO 67 12,5 C 0,0 km/h (0 Bft)
01.08.2015 18:00 17,8 C 19,3 C 70 % 1010,6 hPa 0,0 mm 1,8 km/h (1 Bft) N-NO 22 12,3 C 3,1 km/h (1 Bft)
01.08.2015 18:05 17,8 C 19,0 C 70 % 1010,6 hPa 0,0 mm 1,6 km/h (1 Bft) O-NO 67 12,3 C 6,7 km/h (2 Bft)
01.08.2015 18:10 17,6 C 18,6 C 70 % 1010,5 hPa 0,0 mm 2,1 km/h (1 Bft) O 90 12,1 C 0,0 km/h (0 Bft)
01.08.2015 18:15 17,5 C 18,4 C 71 % 1010,5 hPa 0,0 mm 1,3 km/h (1 Bft) O-SO 112 12,2 C 3,4 km/h (1 Bft)
01.08.2015 18:20 17,4 C 18,2 C 71 % 1010,5 hPa 0,0 mm 0,8 km/h (0 Bft) NO 45 12,1 C 6,5 km/h (2 Bft)
01.08.2015 18:25 17,3 C 18,0 C 71 % 1010,5 hPa 0,0 mm 1,3 km/h (1 Bft) O-NO 67 12,0 C 0,0 km/h (0 Bft)
01.08.2015 18:30 17,3 C 17,9 C 71 % 1010,6 hPa 0,0 mm 1,3 km/h (1 Bft) N-NO 22 12,0 C 2,6 km/h (1 Bft)
01.08.2015 18:35 17,3 C 17,9 C 71 % 1010,6 hPa 0,0 mm 0,3 km/h (0 Bft) O 90 12,0 C 0,0 km/h (0 Bft)
01.08.2015 18:40 17,3 C 17,8 C 71 % 1010,6 hPa 0,0 mm 0,3 km/h (0 Bft) NO 45 12,0 C 4,7 km/h (1 Bft)
01.08.2015 18:45 17,2 C 17,7 C 71 % 1010,6 hPa 0,0 mm 1,6 km/h (1 Bft) NO 45 11,9 C 4,7 km/h (1 Bft)
01.08.2015 18:50 17,2 C 17,5 C 71 % 1010,7 hPa 0,0 mm 2,3 km/h (1 Bft) O 90 11,9 C 0,0 km/h (0 Bft)
01.08.2015 18:55 17,1 C 17,4 C 72 % 1010,7 hPa 0,0 mm 1,3 km/h (1 Bft) N-NO 22 12,0 C 0,0 km/h (0 Bft)
01.08.2015 19:00 17,1 C 17,4 C 72 % 1010,7 hPa 0,0 mm 0,0 km/h (0 Bft) O-NO 67 12,0 C 0,0 km/h (0 Bft)
01.08.2015 19:05 17,0 C 17,4 C 72 % 1010,7 hPa 0,0 mm 0,0 km/h (0 Bft) O 90 11,9 C 0,0 km/h (0 Bft)
01.08.2015 19:10 16,8 C 17,2 C 73 % 1010,8 hPa 0,0 mm 0,0 km/h (0 Bft) SO 135 11,9 C 0,0 km/h (0 Bft)
01.08.2015 19:15 16,8 C 17,1 C 73 % 1010,8 hPa 0,0 mm 0,0 km/h (0 Bft) O-SO 112 11,9 C 0,0 km/h (0 Bft)
01.08.2015 19:20 16,7 C 17,0 C 73 % 1010,8 hPa 0,0 mm 0,0 km/h (0 Bft) O-SO 112 11,8 C 0,0 km/h (0 Bft)
01.08.2015 19:25 16,6 C 16,9 C 73 % 1010,8 hPa 0,0 mm 0,0 km/h (0 Bft) O-NO 67 11,7 C 2,8 km/h (1 Bft)
01.08.2015 19:30 16,5 C 16,8 C 74 % 1010,8 hPa 0,0 mm 0,3 km/h (0 Bft) O-SO 112 11,8 C 0,0 km/h (0 Bft)
01.08.2015 19:35 16,4 C 16,6 C 74 % 1010,8 hPa 0,0 mm 0,3 km/h (0 Bft) O-SO 112 11,8 C 0,0 km/h (0 Bft)
01.08.2015 19:40 16,4 C 16,6 C 74 % 1010,8 hPa 0,0 mm 0,0 km/h (0 Bft) O-SO 112 11,8 C 0,0 km/h (0 Bft)
01.08.2015 19:45 16,3 C 16,6 C 74 % 1010,8 hPa 0,0 mm 0,0 km/h (0 Bft) S-SO 157 11,7 C 0,0 km/h (0 Bft)
01.08.2015 19:50 16,4 C 16,5 C 74 % 1010,8 hPa 0,0 mm 0,0 km/h (0 Bft) O-NO 67 11,8 C 0,0 km/h (0 Bft)
01.08.2015 19:55 16,3 C 16,5 C 74 % 1010,8 hPa 0,0 mm 0,0 km/h (0 Bft) SO 135 11,7 C 0,0 km/h (0 Bft)
01.08.2015 20:00 16,4 C 16,4 C 74 % 1010,8 hPa 0,0 mm 0,0 km/h (0 Bft) O-NO 67 11,8 C 0,0 km/h (0 Bft)
01.08.2015 20:05 16,3 C 16,3 C 75 % 1010,8 hPa 0,0 mm 0,0 km/h (0 Bft) SO 135 11,9 C 0,0 km/h (0 Bft)
01.08.2015 20:10 16,1 C 16,2 C 75 % 1010,8 hPa 0,0 mm 0,0 km/h (0 Bft) SO 135 11,7 C 0,0 km/h (0 Bft)
01.08.2015 20:15 16,0 C 16,1 C 75 % 1010,8 hPa 0,0 mm 0,0 km/h (0 Bft) SO 135 11,6 C 0,0 km/h (0 Bft)
01.08.2015 20:20 15,9 C 16,0 C 76 % 1010,8 hPa 0,0 mm 0,0 km/h (0 Bft) O-SO 112 11,7 C 0,0 km/h (0 Bft)
01.08.2015 20:25 15,9 C 15,9 C 76 % 1010,8 hPa 0,0 mm 0,0 km/h (0 Bft) SO 135 11,7 C 0,0 km/h (0 Bft)
01.08.2015 20:30 15,8 C 15,8 C 76 % 1011,0 hPa 0,0 mm 0,0 km/h (0 Bft) O-SO 112 11,6 C 0,0 km/h (0 Bft)
01.08.2015 20:35 15,7 C 15,7 C 76 % 1011,0 hPa 0,0 mm 0,0 km/h (0 Bft) SO 135 11,5 C 0,0 km/h (0 Bft)
01.08.2015 20:40 15,5 C 15,5 C 77 % 1011,0 hPa 0,0 mm 0,0 km/h (0 Bft) S-SO 157 11,5 C 0,0 km/h (0 Bft)
01.08.2015 20:45 15,4 C 15,4 C 78 % 1011,0 hPa 0,0 mm 0,0 km/h (0 Bft) S-SO 157 11,6 C 0,0 km/h (0 Bft)
01.08.2015 20:50 15,3 C 15,3 C 78 % 1011,2 hPa 0,0 mm 0,5 km/h (0 Bft) S-SO 157 11,5 C 2,8 km/h (1 Bft)
01.08.2015 20:55 15,2 C 15,2 C 78 % 1011,2 hPa 0,0 mm 1,0 km/h (0 Bft) S-SO 157 11,4 C 0,0 km/h (0 Bft)
01.08.2015 21:00 15,2 C 15,1 C 79 % 1011,2 hPa 0,0 mm 1,3 km/h (1 Bft) S 180 11,6 C 3,4 km/h (1 Bft)
01.08.2015 21:05 15,1 C 15,1 C 79 % 1011,2 hPa 0,0 mm 0,5 km/h (0 Bft) S 180 11,5 C 0,0 km/h (0 Bft)
01.08.2015 21:10 15,1 C 15,1 C 79 % 1011,4 hPa 0,0 mm 0,3 km/h (0 Bft) S-SO 157 11,5 C 0,0 km/h (0 Bft)
01.08.2015 21:15 15,0 C 15,0 C 80 % 1011,4 hPa 0,0 mm 0,0 km/h (0 Bft) S-SO 157 11,6 C 0,0 km/h (0 Bft)
01.08.2015 21:20 15,0 C 15,0 C 80 % 1011,4 hPa 0,0 mm 1,0 km/h (0 Bft) S 180 11,6 C 2,8 km/h (1 Bft)
01.08.2015 21:23 15,0 C 15,0 C 81 % 1011,4 hPa 0,0 mm 1,8 km/h (1 Bft) S 180 11,8 C 3,1 km/h (1 Bft)
01.08.2015 21:25 15,0 C 15,0 C 81 % 1011,4 hPa 0,0 mm 1,8 km/h (1 Bft) S 180 11,8 C 3,1 km/h (1 Bft)
01.08.2015 21:30 14,9 C 14,9 C 81 % 1011,6 hPa 0,0 mm 1,8 km/h (1 Bft) S-SO 157 11,7 C 0,0 km/h (0 Bft)
01.08.2015 21:35 14,9 C 14,9 C 81 % 1011,6 hPa 0,0 mm 1,0 km/h (0 Bft) S-SO 157 11,7 C 0,0 km/h (0 Bft)
01.08.2015 21:40 14,9 C 14,8 C 81 % 1011,6 hPa 0,0 mm 0,0 km/h (0 Bft) S-SO 157 11,7 C 0,0 km/h (0 Bft)
01.08.2015 21:45 14,9 C 14,8 C 81 % 1011,6 hPa 0,0 mm 0,0 km/h (0 Bft) S-SO 157 11,7 C 0,0 km/h (0 Bft)
01.08.2015 21:50 14,8 C 14,8 C 81 % 1011,9 hPa 0,0 mm 0,0 km/h (0 Bft) S-SO 157 11,6 C 0,0 km/h (0 Bft)
01.08.2015 21:55 14,8 C 14,8 C 81 % 1011,9 hPa 0,0 mm 0,0 km/h (0 Bft) S-SO 157 11,6 C 0,0 km/h (0 Bft)
01.08.2015 22:00 14,8 C 14,7 C 81 % 1011,9 hPa 0,0 mm 0,0 km/h (0 Bft) S-SO 157 11,6 C 0,0 km/h (0 Bft)
01.08.2015 22:05 14,8 C 14,7 C 82 % 1011,9 hPa 0,0 mm 0,0 km/h (0 Bft) S-SO 157 11,8 C 0,0 km/h (0 Bft)
01.08.2015 22:10 14,8 C 14,7 C 82 % 1011,8 hPa 0,0 mm 0,0 km/h (0 Bft) S-SO 157 11,8 C 0,0 km/h (0 Bft)
01.08.2015 22:15 14,8 C 14,7 C 82 % 1011,8 hPa 0,0 mm 0,0 km/h (0 Bft) S-SO 157 11,8 C 0,0 km/h (0 Bft)
01.08.2015 22:20 14,7 C 14,6 C 82 % 1011,8 hPa 0,0 mm 0,3 km/h (0 Bft) S 180 11,7 C 2,6 km/h (1 Bft)
01.08.2015 22:25 14,8 C 14,7 C 82 % 1011,8 hPa 0,0 mm 1,3 km/h (1 Bft) SW 225 11,8 C 3,9 km/h (1 Bft)
01.08.2015 22:30 14,7 C 14,6 C 82 % 1012,0 hPa 0,0 mm 1,0 km/h (0 Bft) SO 135 11,7 C 0,0 km/h (0 Bft)
01.08.2015 22:35 14,6 C 14,5 C 82 % 1012,0 hPa 0,0 mm 0,3 km/h (0 Bft) SO 135 11,6 C 0,0 km/h (0 Bft)
01.08.2015 22:40 14,5 C 14,3 C 82 % 1012,0 hPa 0,0 mm 0,0 km/h (0 Bft) S-SO 157 11,5 C 0,0 km/h (0 Bft)
01.08.2015 22:45 14,4 C 14,2 C 82 % 1012,0 hPa 0,0 mm 0,0 km/h (0 Bft) S 180 11,4 C 0,0 km/h (0 Bft)
01.08.2015 22:50 14,3 C 14,1 C 82 % 1012,1 hPa 0,0 mm 0,0 km/h (0 Bft) W-SW 247 11,3 C 0,0 km/h (0 Bft)
01.08.2015 22:55 14,3 C 14,1 C 82 % 1012,1 hPa 0,0 mm 0,0 km/h (0 Bft) W-NW 292 11,3 C 0,0 km/h (0 Bft)
01.08.2015 23:00 14,2 C 14,0 C 83 % 1012,1 hPa 0,0 mm 0,0 km/h (0 Bft) W-SW 247 11,4 C 0,0 km/h (0 Bft)
01.08.2015 23:05 14,1 C 13,9 C 83 % 1012,1 hPa 0,0 mm 0,0 km/h (0 Bft) W-SW 247 11,3 C 0,0 km/h (0 Bft)
01.08.2015 23:10 14,1 C 13,8 C 83 % 1012,1 hPa 0,0 mm 0,0 km/h (0 Bft) O-SO 112 11,3 C 0,0 km/h (0 Bft)
01.08.2015 23:15 14,0 C 13,8 C 83 % 1012,1 hPa 0,0 mm 0,0 km/h (0 Bft) O-SO 112 11,2 C 0,0 km/h (0 Bft)
01.08.2015 23:20 14,0 C 13,8 C 84 % 1012,1 hPa 0,0 mm 0,0 km/h (0 Bft) O-SO 112 11,3 C 0,0 km/h (0 Bft)
01.08.2015 23:25 14,0 C 13,8 C 84 % 1012,1 hPa 0,0 mm 0,0 km/h (0 Bft) SO 135 11,3 C 0,0 km/h (0 Bft)
01.08.2015 23:30 13,9 C 13,7 C 84 % 1012,2 hPa 0,0 mm 0,0 km/h (0 Bft) NO 45 11,2 C 0,0 km/h (0 Bft)
01.08.2015 23:35 13,9 C 13,7 C 84 % 1012,2 hPa 0,0 mm 0,0 km/h (0 Bft) NO 45 11,2 C 0,0 km/h (0 Bft)
01.08.2015 23:40 13,9 C 13,7 C 85 % 1012,2 hPa 0,0 mm 0,0 km/h (0 Bft) O-NO 67 11,4 C 0,0 km/h (0 Bft)
01.08.2015 23:45 13,9 C 13,7 C 85 % 1012,2 hPa 0,0 mm 0,0 km/h (0 Bft) O-NO 67 11,4 C 0,0 km/h (0 Bft)
01.08.2015 23:50 13,8 C 13,7 C 83 % 1012,1 hPa 0,7 mm 0,0 km/h (0 Bft) O 90 11,0 C 0,0 km/h (0 Bft)
01.08.2015 23:55 13,8 C 13,7 C 84 % 1012,1 hPa 0,0 mm 0,0 km/h (0 Bft) O-NO 67 11,1 C 0,0 km/h (0 Bft)
_ Min-Zeit 01:25 01:25 10:35 07:05 - 23:55 - - 01:25 23:55
Minimum _ 10,5 C 10,3 C 62 % 1006,9 hPa - 0,0 km/h (0 Bft) - - 7,0 C 0,0 km/h (0 Bft)
_ Max-Zeit 08:15 07:50 23:45 23:45 23:50 10:40 - - 08:15 10:40
Maximum _ 19,5 C 25,7 C 85 % 1012,2 hPa 0,7 mm 12,9 km/h
W-NW (3 Bft)
- - 13,7 C 32,9 km/h
W-NW (5 Bft)
Durchschnitt _ 15,2 C 16,4 C 75 % 1009,8 hPa #0,7 mm 2,3 km/h (1 Bft) NW - 10,7 C 3,6 km/h (1 Bft)